Tacoma Narrows, WA

1:45 AM PDT on October 17, 2017 (GMT -0700)
Tacoma Narrows

Weather History for KTIW - November, 2012

Change the Weather History Date:

Friday, November 16, 2012

  Actual Average Record
Temperature  
Mean Temperature 42 °F -  
Max Temperature 46 °F 48 °F 53 °F (1998)
Min Temperature 37 °F 40 °F 28 °F (2014)
Degree Days  
Heating Degree Days 24    
Moisture  
Dew Point 40 °F    
Average Humidity 92    
Maximum Humidity 100    
Minimum Humidity 82    
Precipitation  
Precipitation 0.25 in - - ()
Sea Level Pressure  
Sea Level Pressure 29.86 in    
Wind  
Wind Speed 2 mph (South)    
Max Wind Speed 5 mph    
Max Gust Speed -    
Visibility 4 miles    
Events Fog , Rain    
Averages and records for this station are not official NWS values.
T = Trace of Precipitation, MM = Missing Value Source: NWS Daily Summary

Daily Weather History Graph

Daily Weather History Graph

Search for Another Location

Airport or City:

Trip Planner

Search our weather history database for the weather conditions in past years. The results will help you decide how hot, cold, wet, or windy it might be!

Date:

Astronomy

Nov. 16, 2012 Rise Set
Actual Time 7:16 AM PST 4:33 PM PST
Civil Twilight 6:43 AM PST 5:06 PM PST
Nautical Twilight 6:05 AM PST 5:43 PM PST
Astronomical Twilight 5:29 AM PST 6:20 PM PST
Moon 10:19 AM PST (11/16) 7:36 PM PST (11/16)
Length of Visible Light 10h 23m
Length of Day
9h 16m
Waxing Crescent, 12% of the Moon is Illuminated
Nov 16
Waxing Crescent
Nov 20
First Quarter
Nov 28
Full
Dec 6
Last Quarter
Dec 13
New

Hourly Weather History & Observations

Time (PST) Temp. Windchill Dew Point Humidity Pressure Visibility Wind Dir Wind Speed Gust Speed Precip Events Conditions
12:53 AM 41.0 °F - 39.0 °F 93% 29.95 in 3.0 mi Calm Calm - N/A   Overcast
1:15 AM 41.0 °F - 39.2 °F 93% 29.94 in 1.8 mi Calm Calm - N/A   Overcast
1:25 AM 41.0 °F 38.0 °F 39.2 °F 93% 29.94 in 2.0 mi South 4.6 mph - N/A   Overcast
1:33 AM 39.2 °F - 39.2 °F 100% 29.94 in 1.0 mi Calm Calm - N/A   Mist
1:48 AM 39.2 °F - 39.2 °F 100% 29.94 in 0.8 mi Calm Calm - N/A   Mist
1:53 AM 39.9 °F - 39.0 °F 97% 29.95 in 0.5 mi Calm Calm - N/A Fog Fog
2:25 AM 41.0 °F 39.0 °F 39.2 °F 93% 29.93 in 1.0 mi SSW 3.5 mph - N/A   Mist
2:33 AM 41.0 °F 39.0 °F 39.2 °F 93% 29.93 in 0.8 mi South 3.5 mph - N/A   Mist
2:43 AM 41.0 °F 38.0 °F 39.2 °F 93% 29.93 in 1.8 mi South 4.6 mph - N/A   Overcast
2:53 AM 39.9 °F - 39.0 °F 97% 29.94 in 1.5 mi Calm Calm - N/A   Overcast
3:17 AM 39.2 °F 35.9 °F 37.4 °F 93% 29.92 in 0.5 mi SSW 4.6 mph - N/A Fog Fog
3:43 AM 39.2 °F 37.0 °F 37.4 °F 93% 29.91 in 0.2 mi SSW 3.5 mph - N/A Fog Fog
3:53 AM 39.9 °F 37.8 °F 37.9 °F 93% 29.92 in 0.2 mi SSW 3.5 mph - N/A Fog Fog
4:53 AM 37.9 °F 35.5 °F 37.0 °F 97% 29.92 in 0.2 mi South 3.5 mph - N/A Fog Fog
5:53 AM 37.9 °F 34.4 °F 37.0 °F 97% 29.91 in 0.2 mi South 4.6 mph - N/A Fog Fog
6:26 AM 37.4 °F 34.9 °F 35.6 °F 93% 29.91 in 0.5 mi SSE 3.5 mph - N/A Fog Fog
6:33 AM 37.4 °F - 35.6 °F 93% 29.90 in 1.2 mi Calm Calm - N/A   Overcast
6:39 AM 37.4 °F 33.8 °F 35.6 °F 93% 29.91 in 3.0 mi SE 4.6 mph - N/A   Overcast
6:53 AM 37.0 °F 34.5 °F 35.1 °F 93% 29.92 in 10.0 mi SSE 3.5 mph - N/A   Overcast
7:53 AM 37.0 °F - 35.1 °F 93% 29.91 in 10.0 mi Calm Calm - N/A   Mostly Cloudy
8:53 AM 39.0 °F - 36.0 °F 89% 29.92 in 10.0 mi Calm Calm - N/A   Overcast
9:53 AM 41.0 °F 39.0 °F 37.0 °F 86% 29.93 in 10.0 mi Variable 3.5 mph - N/A   Overcast
10:53 AM 42.1 °F - 37.0 °F 82% 29.93 in 10.0 mi Calm Calm - N/A   Overcast
11:53 AM 43.0 °F - 37.9 °F 82% 29.91 in 10.0 mi Calm Calm - 0.00 in   Overcast
12:53 PM 44.1 °F 42.5 °F 39.0 °F 82% 29.88 in 8.0 mi East 3.5 mph - 0.01 in Rain Light Rain
1:53 PM 43.0 °F 41.3 °F 39.9 °F 89% 29.85 in 8.0 mi NE 3.5 mph - 0.01 in Rain Light Rain
2:53 PM 43.0 °F 41.3 °F 41.0 °F 93% 29.83 in 3.0 mi NNE 3.5 mph - 0.04 in Rain Light Rain
3:13 PM 44.6 °F - 42.8 °F 93% 29.83 in 2.5 mi Calm Calm - 0.03 in Rain Light Rain
3:53 PM 44.1 °F 42.5 °F 41.0 °F 89% 29.82 in 2.5 mi NE 3.5 mph - 0.06 in Rain Light Rain
4:00 PM 44.6 °F - 42.8 °F 93% 29.81 in 2.5 mi Calm Calm - 0.01 in Rain Light Rain
4:53 PM 44.1 °F 41.5 °F 42.1 °F 93% 29.81 in 2.5 mi West 4.6 mph - 0.05 in Rain Light Rain
5:53 PM 44.1 °F - 42.1 °F 93% 29.79 in 2.0 mi Calm Calm - 0.03 in   Overcast
6:53 PM 45.0 °F - 42.1 °F 90% 29.78 in 2.5 mi Calm Calm - N/A   Overcast
7:00 PM 44.6 °F - 42.8 °F 93% 29.76 in 2.5 mi Calm Calm - N/A   Overcast
7:53 PM 45.0 °F - 43.0 °F 93% 29.76 in 2.5 mi Calm Calm - N/A   Overcast
8:00 PM 44.6 °F - 42.8 °F 93% 29.74 in 6.0 mi Calm Calm - N/A   Overcast
8:32 PM 44.6 °F - 42.8 °F 93% 29.74 in 2.5 mi Calm Calm - 0.00 in Rain Light Rain
8:39 PM 44.6 °F - 42.8 °F 93% 29.74 in 5.0 mi Calm Calm - 0.00 in Rain Light Rain
8:53 PM 45.0 °F - 43.0 °F 93% 29.74 in 6.0 mi Calm Calm - 0.01 in Rain Light Rain
9:53 PM 45.0 °F - 43.0 °F 93% 29.73 in 5.0 mi Calm Calm - 0.00 in   Overcast
10:48 PM 44.6 °F 43.1 °F 42.8 °F 93% 29.73 in 3.0 mi SSW 3.5 mph - 0.01 in Rain Light Rain
10:53 PM 46.0 °F - 44.1 °F 93% 29.74 in 3.0 mi Calm Calm - 0.02 in Rain Light Rain
11:53 PM 46.0 °F - 44.1 °F 93% 29.70 in 5.0 mi Calm Calm - 0.02 in   Overcast